Track COSMOS 339 now! 10-day predictions COSMOS 339 is classified as:
1 4386U 70036D 21111.13749007 -.00000008 00000-0 53507-4 0 9997 2 4386 74.0256 131.5131 0014630 114.5430 302.4721 12.51834295330267